Location: Sabana Grande
(18.0777°N, 66.9605°W)
Time: 20:41:39
(UTC-04:00)

ARIANE 6 FM1 Upper Stage - Pass Details

Date: 22 September 2024
Orbit: 563 x 595 km, 62.0° (Epoch: 14 October)

Event Time Altitude Azimuth Distance (km) Brightness Sun altitude
Rises 19:06:15 0° 231° (SW) 2,749 7.0 -11.0°
Reaches altitude 10° 19:08:46 10° 244° (WSW) 1,858 6.3 -11.6°
Maximum altitude 19:12:14 25° 300° (WNW) 1,169 5.1 -12.4°
Drops below altitude 10° 19:15:45 10° 356° (N) 1,877 5.4 -13.2°
Sets 19:18:19 0° 10° (N) 2,783 6.2 -13.8°
